Regional Weather Roundup
Issued by NWS Wakefield, VA

Home | Current Version | Previous Version | Graphics & Text | Print | Product List | Glossary On
Versions: 1 2 3 4 5 6 7 8 9 10 11 12 13 14 15 16 17 18 19 20 21 22 23 24 25 26 27 28 29 30 31 32 33 34 35 36 37 38 39 40 41 42 43 44 45 46 47 48 49 50
000
ASUS41 KAKQ 060515
RWRAKQ

REGIONAL WEATHER ROUNDUP
NATIONAL WEATHER SERVICE WAKEFIELD VA
100 AM EDT WED MAY 06 2015

Note: "fair" indicates few or no clouds below 12,000 feet with no
significant weather and/or obstructions to visibility. * = Denotes
station may not report precipitation (e.g., rain,snow,etc.),
thunder or fog.

VAZ042-051-052>054-056-060600-
NORTHERN VIRGINIA

CITY           SKY/WX    TMP DP  RH WIND       PRES   REMARKS
WASH NATIONAL  PTCLDY    66  61  84 SW6       30.24S
DULLES         PTCLDY    63  61  93 S8        30.24F
FORT BELVOIR   PTCLDY    61  59  94 SE1       30.24S FOG
QUANTICO       MOCLDY    65  62  90 W3        30.25S
FREDERICKSBRG*   N/A     66  66 100 CALM      30.24S FOG
STAFFORD*      FOG       62  32  32 CALM      30.28S VSB 3/4
WARRENTON      MOCLDY    64  64 100 CALM      30.24F
CULPEPER*        N/A     62  62 100 CALM      30.26S FOG
MANASSAS*      PTCLDY    63  61  94 CALM      30.24F
LEESBURG*      PTCLDY    64  64 100 S5        30.24F
WINCHESTER     PTCLDY    64  55  72 SW5       30.23F
FRONT ROYAL*   FAIR      61  59  94 CALM      30.24S
LURAY*         FOG       61  61 100 CALM      30.25F VSB 1
$$

VAZ048-049-060>072-079>083-060600-
CENTRAL AND SOUTH CENTRAL VIRGINIA

CITY           SKY/WX    TMP DP  RH WIND       PRES   REMARKS
RICHMOND       CLOUDY    67  61  81 S7        30.26S
CHESTERFIELD*  FAIR      68  54  60 S6        30.27F
PETERSBURG*    PTCLDY    67  53  61 CALM      30.27F
HANOVER        MOCLDY    65  64  97 S5        30.27R FOG
TAPPAHANNOCK*  PTCLDY    65  61  88 S3        30.25F
QUINTON*       FAIR      68  58  70 S3        30.25F
CHARLOTTSVILLE CLOUDY    64  62  93 N3        30.26S FOG
GORDONSVILLE*  CLOUDY    60  60  99 CALM      30.25F FOG
ORANGE*        MOCLDY    63  63 100 CALM      30.27S FOG
LOUISA*        PTCLDY    63  61  94 CALM      30.25S FOG
BUMPASS*       CLOUDY    63  62  98 CALM      30.25S
FARMVILLE*     MOCLDY    67  66  96 SW6       30.25F
CREWE*         FAIR      67  56  67 S5        30.27S
FORT PICKETT*  FAIR      64  54  69 SW6       30.28S
CHASE CITY*    MOCLDY    68  55  64 SE3       30.28S
CLARKSVILLE*   FAIR      63  52  67 CALM      30.27S
SOUTH HILL*    PTCLDY    60  51  73 CALM      30.34S
LAWRENCEVILLE* FAIR      63  53  69 CALM      30.28S
EMPORIA*       PTCLDY    59  52  77 CALM      30.30S
$$

VAZ088>098-060600-
SOUTHEAST VIRGINIA

CITY           SKY/WX    TMP DP  RH WIND       PRES   REMARKS
NORFOLK        PTCLDY    66  50  56 SW12      30.27F
VIRGINIA BEACH MOCLDY    68  51  54 S9        30.27F
NORFOLK NAVAL  PTCLDY    70  51  51 S10G17    30.28F
WEST POINT*    PTCLDY    71  53  53 S5        30.27S
SALUDA*        MOCLDY    68  54  61 SW6       30.24F
NEWPORT NEWS   PTCLDY    67  53  61 SW8       30.27F
LANGLEY AFB    PTCLDY    66  53  62 S13       30.25F
FORT EUSTIS    PTCLDY    66  55  67 S5        30.25F
WILLIAMSBURG*  PTCLDY    70  55  60 S3        30.27F
HR EXEC AP*    FAIR      64  52  63 S7        30.29F
FRANKLIN*      PTCLDY    61  53  74 S5        30.28F
WAKEFIELD      PTCLDY    65  53  65 S5        30.27F
$$

VAZ020-022-025-037-045-060600-
WEST CENTRAL AND SOUTHWEST VIRGINIA

CITY           SKY/WX    TMP DP  RH WIND       PRES   REMARKS
STAUNTON*      CLOUDY    60  57  89 CALM      30.28F
WAYNESBORO*    CLOUDY    64  59  83 CALM      30.27F
HOT SPRINGS VA CLOUDY    63  50  61 S6        30.35S
LYNCHBURG      MOCLDY    61  58  90 CALM      30.28S
DANVILLE       CLEAR     66  54  65 S5        30.27S
SOUTH BOSTON*  FAIR      65  54  66 CALM      30.26F
MARTINSVILLE   PTCLDY    58  58 100 CALM      30.30S
ROANOKE        MOCLDY    66  55  67 CALM      30.28R
BLACKSBURG     CLEAR     58  53  83 CALM      30.33S
DUBLIN*        CLEAR     60  55  82 CALM      30.32R
MARION*        CLEAR     58  53  82 CALM      30.35R
HILLSVILLE*    CLEAR     63  52  67 S6        30.32F
RICHLANDS*     FAIR      66  52  59 S5        30.32R
WISE*          PTCLDY    63  46  55 CALM      30.33R
ABINGDON*      PTCLDY    62  55  77 CALM      30.30S
$$

MDZ021>025-VAZ099-100-060600-
SOUTHERN MARYLAND AND THE DELMARVA PENINSULA

CITY           SKY/WX    TMP DP  RH WIND       PRES   REMARKS
PATUXENT RIVER CLOUDY    65  62  90 W6        30.22S
BAY BRIDGE APT   N/A    N/A N/A N/A SW3       30.22S
LEONARDTOWN    MOCLDY    63  61  94 W3        30.24S
DOVER          PTCLDY    65  65  98 CALM      30.18S
GEORGETOWN     PTCLDY    63  58  83 S5        30.22S
EASTON         FAIR      65  65 100 CALM      30.25S
CAMBRIDGE      MOCLDY    64  61  88 CALM      30.21S
SALISBURY      PTCLDY    64  59  83 S6        30.23R
OCEAN CITY     PTCLDY    66  58  75 SW9       30.23S
WALLOPS ISLAND CLEAR     67  53  61 SW10      30.24S
ACCOMACK*      CLEAR     66  54  63 SW10G17   30.25F
$$

NCZ012>017-030>032-060600-
NORTH CENTRAL AND EASTERN NORTH CAROLINA

CITY           SKY/WX    TMP DP  RH WIND       PRES   REMARKS
ROANOKE RAPIDS FAIR      55  52  88 CALM      30.29S
RALEIGH        MOCLDY    63  52  67 S5        30.29F
ELIZABETH CITY CLEAR     61  54  77 S3        30.30F
AHOSKIE*       PTCLDY    55  52  90 CALM      30.30S
EDENTON*       CLEAR     61  55  82 CALM      30.30S
CURRITUCK*     PTCLDY    61  53  76 CALM      30.30F
KILL DEVIL HLS CLEAR     64  59  83 CALM      30.29F
MANTEO         CLEAR     59  57  94 CALM      30.31S
CAPE HATTERAS  MOCLDY    64  58  80 S3        30.31S
TARBORO*       FAIR      56  54  92 CALM      30.30S
GOLDSBORO      PTCLDY    60  54  78 CALM      30.26F
WASHINGTON     CLEAR     58  53  83 CALM      30.29F
GREENVILLE     PTCLDY    61  52  72 CALM      30.29S
NEW BERN       PTCLDY    54  50  86 CALM      30.30F
WILMINGTON     MOCLDY    58  55  90 CALM      30.28S
$$

VAZ048-060600-
ELSEWHERE

CITY           SKY/WX    TMP DP  RH WIND       PRES   REMARKS
HARRISBURG PA  MOCLDY    65  61  87 SE6       30.22S
BALTIMORE      PTCLDY    64  60  87 W6        30.21S
ANNAPOLIS      CLEAR     66  59  78 VRB6      30.21S
ANDREWS AFB    PTCLDY    64  63  99 SW10      30.22F
PHILADELPHIA   CLOUDY    70  61  73 SW8       30.22R
HENDERSON NC   PTCLDY    62  50  64 S6        30.28F
GREENSBORO     PTCLDY    64  55  72 SW7       30.27S
ROCKY MOUNT    CLEAR     57  53  86 CALM      30.29S
$$

VAZ100-060600-
MARINE

STATION/POSITION TIME  TEMP    WIND        PRES    WAVE   SWELL
                       AIR SEA DIR/SP/G            HT/PER HT/PER
                 (UTC) (F)     (DEG/KT/KT) (MB)    (FT/S) (FT/S)
BRANDYWINE LGT   0406   64 55   40/  1/  2 1023.3R
CAPE MAY NJ      0406   64 61  200/  2/  2 1023.0R
LEWES DE         0406   68 59  230/  5/  6 1023.0S
15NM E FENWICK I 0450   58 54              1023.0R   4/ 5
OCEAN-CITY-INLET 0406   58 51  220/ 10/ 11 1023.3F
WACHAPREAGUE VA  0400   68 69  230/  8/ 12 1024.7F
THOMAS POINT MD  0500   66 60  270/  8/  9 1023.7S
GOOSES REEF MD   0500   63 60                N/A     1/ 2
COVE POINT MD    0400   68     250/ 10/ 13 1023.9F
SOLOMONS ISLAND  0406      64                N/A
BISHOPS HEAD MD  0400   68 69  220/ 11/ 13 1023.1F
PINEY POINT MD   0400          150/  1/  1   N/A
CAMBRIDGE MD     0406   67 63  250/  6/ 10 1022.8F
LEWISETTA VA     0400   68 68              1023.4F
RAPPAHANNOCK LGT 0400          190/ 15/ 15 1025.2F
YORK RVR RNG VA  0406   68     230/ 10/ 12 1024.5F
YORKTOWN VA      0406   68 62  220/  6/ 10 1024.8F
JAMESTOWN VA     0500   66 66  220/  4/  8 1023.8F
DOMINION TERM VA 0400   67     200/ 10/ 12 1025.5F
KIPTOPEKE VA     0400      68  210/  7/ 10   N/A
CHES BAY BRIDGE  0406   68 59  190/ 15/ 16 1024.9F
CAPE HENRY VA    0406   68     200/ 12/ 16 1024.2F
CHESAPEAKE LGHT  0400   66     210/ 20/ 21 1025.7F
WILLOUBY STN VA  0400   68     200/ 14/ 16 1026.1R
S CRANEY ISL VA  0406          190/  8/ 10 1025.5F
CAPE HENRY BUOY  0428      62                N/A     2/12
1ST LANDING BUOY 0500      60                N/A     2/ 3
CAPE CHARLES BUO 0426      58                N/A     2/12   2/12
OFFSHORE WE BUOY 0411      54                N/A     2/12   2/12
64NM E OF VA BCH 0450   61 57  210/ 10/ 10 1025.6F   2/ 9   2/ 9
DUCK PIER NC     0406   67 52  190/  8/ 10 1025.2F
44056 DUCK FRF   0411      54                N/A     1/11
OREGON INLET NC  0406   67 72  180/  6/  7 1026.3F
HATTERAS NC      0406   69 69  160/  4/  6 1025.9F
DIAMOND SHLS NC  0450   70 75  160/  6/ 10 1026.3F   3/ 9   3/ 9
CAPE LOOKOUT NC  0500   68      80/  4/  4 1025.4F
$$


USA.gov is the U.S. government's official web portal to all federal, state and local government web resources and services.